Location: Solon
(41.3849°N, 81.4081°W)
Time: 11:23:59
(UTC-04:00)

CZ-2C R/B - Visible Passes

Search period start: 07 July 2015 00:00
Search period end: 17 July 2015 00:00
Orbit: 704 x 909 km, 98.1° (Epoch: 06 July)

Date Brightness Start Highest point End Pass type
(mag) Time Alt. Az. Time Alt. Az. Time Alt. Az.
07 Jul 5.4 01:52:15 10° ESE 01:55:48 18° ENE 01:59:26 10° NNE visible
07 Jul 3.2 03:32:49 35° S 03:35:15 68° WSW 03:40:41 10° NNW visible
08 Jul 5.8 01:30:12 10° ENE 01:31:25 11° ENE 01:32:57 10° NE visible
08 Jul 3.3 03:07:57 33° SSE 03:10:36 76° ENE 03:16:01 10° N visible
08 Jul 4.9 04:49:02 12° WSW 04:51:04 14° W 04:53:49 10° WNW visible
09 Jul 4.0 02:43:05 25° SE 02:46:00 46° ENE 02:51:09 10° N visible
09 Jul 4.4 04:24:10 20° WSW 04:26:06 24° W 04:30:22 10° NW visible
10 Jul 4.8 02:18:14 16° ESE 02:21:28 29° ENE 02:26:03 10° N visible
10 Jul 3.8 03:59:18 30° SW 04:01:15 39° W 04:06:15 10° NNW visible
11 Jul 5.4 01:53:29 10° ESE 01:57:00 18° ENE 02:00:37 10° NNE visible
11 Jul 3.2 03:34:26 38° SSW 03:36:30 64° WSW 03:41:49 10° NNW visible
12 Jul 5.8 01:31:21 10° ENE 01:32:37 11° ENE 01:34:11 10° NE visible
12 Jul 3.2 03:09:34 37° SSE 03:11:50 79° ENE 03:17:09 10° N visible
12 Jul 4.9 04:50:39 12° WSW 04:52:20 13° W 04:54:42 10° WNW visible
13 Jul 3.9 02:44:42 28° SE 02:47:14 48° ENE 02:52:17 10° N visible
13 Jul 4.4 04:25:47 20° WSW 04:27:22 22° W 04:31:24 10° NW visible
14 Jul 4.7 02:19:51 18° ESE 02:22:41 29° ENE 02:27:12 10° N visible
14 Jul 3.8 04:00:56 31° SW 04:02:30 37° W 04:07:19 10° NNW visible
15 Jul 5.3 01:55:00 11° ESE 01:58:12 18° ENE 02:01:47 10° NNE visible
15 Jul 3.2 03:36:04 42° SSW 03:37:44 61° W 03:42:55 10° NNW visible
16 Jul 5.7 01:32:29 10° ENE 01:33:47 11° ENE 01:35:23 10° NE visible
16 Jul 3.1 03:11:12 43° SSE 03:13:04 82° ENE 03:18:16 10° N visible
16 Jul 5.0 04:52:17 11° WSW 04:53:35 12° W 04:55:30 10° WNW visible
